Temp
70 68 72 73 75 76 75 77 77 78 80 80 79 79 79 79 79 78 78 77 76 77 76 74 73 72 71 71 70 69 69 69 67 65 65 65 64 66 69 69 68 68 68 67 66 62 61 60 62 66 66 67 68 70 72 73 75 69 76 77 79 79 78
69 70 74 75 74 76 75 77 76 78 79 79 81 80 80 80 79 79 79 78 76 76 76 75 75 74 71 70 68 66 67 68 68 67 67 66 67 67 66 65 66 65 65 66 66 64 60 60 61 62 60 64 66 69 71 73 70 74 76 77 79 80 78
73 76 75 71 70 72 73 72 76 76 77 77 78 80 80 80 79 79 79 78 77 77 77 78 77 76 73 71 69 69 69 68 69 68 67 67 67 70 67 66 64 64 61 62 63 63 63 62 60 61 64 62 62 66 70 69 69 73 77 77 77 81 80
73 74 73 73 73 71 72 75 75 75 76 77 78 77 77 78 78 79 77 78 78 77 78 78 76 76 75 72 71 69 69 68 68 68 68 70 70 67 64 63 64 66 63 62 62 63 63 62 61 61 64 67 66 64 67 71 71 72 74 75 78 80 78
73 73 72 71 73 70 71 70 72 75 74 76 77 77 77 77 77 77 77 77 77 76 76 77 76 76 75 73 70 68 67 68 70 69 69 68 68 67 65 66 69 69 66 64 65 67 64 63 62 62 65 63 68 67 71 71 73 71 70 70 78 79 79
72 73 73 73 73 71 72 72 74 74 75 74 75 76 76 76 76 75 76 76 76 76 77 76 75 76 74 74 72 71 71 70 70 70 70 68 68 67 66 70 69 67 65 66 67 68 66 65 63 61 65 65 64 63 69 69 69 72 71 68 76 81 80
70 71 73 73 73 74 74 73 73 73 74 72 72 72 75 71 75 76 76 76 77 77 77 77 76 76 74 73 73 71 71 71 71 70 69 69 66 67 70 70 69 67 66 66 68 69 65 64 62 63 64 62 64 63 68 68 71 68 67 67 70 78 73
70 71 71 72 73 72 74 74 74 75 74 75 74 75 73 76 76 76 76 76 76 75 77 75 75 75 75 75 75 73 72 72 72 70 70 67 67 66 66 67 69 69 67 68 69 68 69 65 68 69 67 61 60 61 61 65 70 68 68 68 74 80 79
68 69 71 72 72 72 73 73 73 73 74 75 75 75 74 73 73 74 75 75 74 72 70 74 74 71 74 73 74 73 71 74 72 72 72 71 70 67 66 67 68 68 68 69 70 71 73 73 72 71 69 63 59 58 63 62 65 66 73 67 70 75 76
67 67 67 69 71 73 73 73 73 73 74 74 74 75 72 70 71 73 71 67 69 70 72 74 73 73 72 71 73 73 73 75 74 73 72 71 72 70 66 68 68 66 66 69 72 74 72 71 72 71 70 67 64 61 61 61 61 63 69 72 69 72 80
68 68 68 68 70 72 73 74 74 74 73 74 74 74 73 68 69 72 70 69 68 70 70 73 72 72 70 74 73 73 75 74 73 73 72 71 71 73 72 69 67 68 73 73 72 72 72 70 67 68 69 71 68 63 64 61 62 67 66 73 70 76 82
68 68 68 68 68 69 71 73 74 74 74 74 74 73 72 69 67 69 71 70 67 68 71 72 72 72 72 69 70 73 74 74 73 73 73 72 72 72 70 67 67 69 73 71 71 68 68 68 68 68 67 70 71 69 67 63 59 65 68 67 73 83 81
67 67 66 66 67 68 71 73 74 74 74 74 74 73 72 71 69 68 67 68 66 67 68 70 70 69 69 69 69 72 72 74 74 73 74 73 74 71 70 69 70 72 72 72 71 68 67 69 70 69 70 72 69 67 65 64 62 61 66 69 74 78 82
65 66 65 65 66 68 69 71 73 73 75 74 73 71 69 70 70 68 68 67 67 67 67 68 68 68 66 66 67 74 75 75 74 73 73 72 74 71 71 72 74 73 73 71 71 70 69 71 72 72 76 75 69 66 65 66 65 64 66 68 69 75 80
65 65 64 64 64 66 66 68 70 73 72 73 73 72 68 67 66 65 66 66 67 70 71 70 70 67 66 64 66 69 71 75 75 75 73 73 72 72 72 74 74 72 72 72 70 71 75 74 75 75 74 74 69 67 69 69 67 65 65 65 65 76 79
64 63 63 63 63 63 65 66 69 70 72 72 72 70 69 67 66 66 66 65 66 67 67 70 67 65 65 66 67 74 75 75 74 73 73 72 74 74 73 73 72 69 71 70 69 70 74 74 76 75 73 75 73 72 71 69 66 65 66 68 71 69 74
63 63 62 62 62 62 63 65 67 68 71 71 71 70 68 67 65 65 64 66 67 67 67 70 71 69 67 68 71 70 74 73 72 73 73 73 73 73 71 71 69 69 70 69 69 71 72 73 72 73 72 72 73 73 69 66 64 66 68 68 69 66 72
62 62 62 62 61 61 61 62 64 66 68 70 71 71 68 66 65 64 65 65 65 65 66 68 68 68 67 66 67 69 71 73 74 73 74 73 71 72 71 69 72 69 69 69 69 69 72 70 72 71 73 74 74 71 68 65 64 66 68 66 66 70 71
63 63 63 62 61 60 60 61 62 63 66 68 68 67 67 65 64 64 65 67 67 66 67 68 69 67 68 67 66 68 72 70 74 75 74 74 74 72 71 73 68 71 67 69 67 68 70 71 72 72 72 74 73 71 66 65 65 63 67 68 68 66 68
64 63 62 62 62 61 60 59 61 62 63 64 65 65 64 63 64 65 68 68 66 66 67 67 66 66 66 69 69 68 69 70 70 73 75 75 75 73 72 73 72 70 69 68 69 68 70 70 71 72 72 69 70 69 66 63 64 65 65 67 71 73 72
65 65 64 63 62 61 61 59 58 61 61 61 61 60 59 61 63 65 65 66 66 65 65 65 66 65 66 66 65 67 68 67 72 74 74 75 75 75 73 72 73 73 74 73 69 70 70 68 70 69 69 66 64 65 65 65 66 65 67 69 70 71 73
66 65 64 63 62 61 60 58 57 58 58 58 59 59 58 58 59 62 65 64 65 65 64 63 65 64 63 64 65 69 68 73 73 73 73 75 73 72 73 73 75 76 74 71 64 63 63 64 71 68 66 67 66 65 68 68 67 65 67 70 68 72 74
66 65 64 63 63 62 60 59 57 56 56 57 57 57 57 57 57 58 60 63 64 64 61 59 51 45 49 56 58 62 68 71 72 74 74 73 73 73 75 77 76 69 63 61 58 53 51 51 56 67 67 66 66 67 67 67 67 68 69 68 67 69 71
65 64 64 64 63 62 61 60 57 56 55 56 55 55 55 55 54 54 56 59 61 54 49 46 42 41 40 42 52 58 62 67 69 70 74 74 73 74 75 77 76 69 66 63 61 48 47 46 47 50 54 58 63 69 67 66 66 66 68 69 68 69 71
63 63 63 63 62 62 61 60 58 56 55 54 55 55 53 54 54 53 53 55 57 53 49 43 40 41 40 40 44 52 60 64 65 71 72 73 74 74 74 74 73 74 73 73 73 64 54 46 45 45 44 46 49 53 56 68 67 66 67 67 67 70 71
61 61 62 62 62 62 61 59 58 57 55 55 54 53 53 53 52 52 51 52 52 54 48 42 40 40 40 40 40 46 59 65 66 65 70 70 73 75 74 73 72 72 75 65 70 72 68 58 47 43 44 44 44 47 50 50 52 63 71 68 69 69 71
60 60 61 61 61 60 59 58 58 58 57 56 53 51 52 52 52 51 51 50 50 53 49 43 40 40 40 39 40 42 59 64 67 68 67 68 71 72 72 73 72 72 73 71 72 72 72 67 63 62 63 66 66 54 48 48 49 44 57 68 69 69 68
60 60 60 60 60 59 58 57 57 58 58 57 55 52 50 50 50 50 50 49 49 50 49 41 40 39 39 39 39 44 59 63 67 69 69 67 67 69 70 71 72 72 71 71 71 69 70 68 66 65 66 68 67 65 66 66 67 68 68 68 68 67 65
60 60 59 58 58 57 57 58 57 57 57 58 58 56 54 52 50 49 50 49 48 47 48 41 40 39 39 39 39 53 62 64 67 69 70 69 67 67 67 68 71 72 69 67 60 55 61 69 68 67 67 67 66 63 57 46 39 42 57 68 69 66 63
61 61 59 57 57 56 56 57 57 58 57 57 57 56 55 55 53 50 49 48 47 46 47 44 40 39 38 38 41 52 59 64 67 69 69 69 67 65 64 64 64 66 65 67 54 50 51 56 70 68 67 65 64 64 59 54 44 41 40 39 40 41 40
61 61 61 58 57 56 57 57 57 57 56 56 56 57 57 57 56 53 50 48 47 45 45 45 40 39 39 38 40 48 56 61 64 66 69 71 68 65 57 49 54 63 64 65 47 51 50 60 68 69 68 66 64 61 59 58 57 51 42 42 41 41 41
61 61 61 60 59 58 58 57 57 57 57 56 56 57 57 57 56 55 53 51 48 46 45 45 41 39 38 39 40 45 52 57 59 61 65 65 67 65 64 55 45 46 56 57 43 47 48 60 70 68 68 66 64 61 60 60 58 58 59 59 58 59 56
60 60 61 61 61 61 61 59 58 58 57 57 56 55 55 55 54 54 54 53 51 48 45 45 43 38 39 39 38 43 51 53 53 54 58 59 63 62 60 59 51 40 38 39 41 43 45 45 62 69 68 66 64 60 62 62 61 62 62 62 61 61 60
60 61 62 61 61 61 61 60 59 59 58 57 56 55 53 53 53 53 54 54 53 51 48 46 45 40 39 39 38 40 48 48 50 52 52 53 53 53 54 52 52 41 38 39 40 39 41 41 43 65 68 69 66 62 59 63 61 54 62 61 60 60 61
60 59 61 61 60 59 60 61 60 59 59 58 56 55 53 53 52 51 52 52 52 51 50 46 46 43 40 39 39 38 41 43 43 48 47 47 48 48 46 46 46 41 38 39 39 41 42 45 47 63 58 48 46 49 63 62 63 63 62 63 63 62 62
60 60 60 60 60 59 59 59 59 59 58 57 57 55 54 52 51 50 50 50 50 50 50 49 43 45 42 39 39 39 38 39 39 44 43 42 42 42 43 42 41 39 39 39 39 39 41 43 46 47 43 46 47 47 54 65 64 64 64 64 63 61 61
61 60 61 60 59 58 58 58 58 58 58 56 55 55 55 53 51 50 48 48 48 48 48 48 45 42 44 40 40 39 39 38 38 41 41 40 40 40 41 40 39 38 39 39 39 39 38 39 41 39 40 42 47 50 65 65 66 65 62 62 61 61 61
MSLP
1016.66 1016.94 1016.22 1015.86 1015.58 1015.34 1015.30 1014.82 1014.62 1014.38 1014.22 1014.10 1014.02 1014.02 1013.98 1014.06 1014.02 1014.02 1014.02 1014.18 1014.26 1014.30 1014.46 1014.58 1014.78 1014.94 1015.18 1015.26 1015.58 1015.86 1016.14 1016.30 1016.58 1016.86 1017.06 1017.22 1017.54 1017.46 1017.30 1017.62 1017.82 1017.90 1018.06 1018.34 1018.62 1018.94 1019.34 1019.86 1019.66 1019.42 1019.66 1019.50 1019.18 1019.10 1018.94 1018.82 1018.62 1019.26 1018.42 1018.54 1018.62 1018.78 1018.94
1016.66 1016.42 1015.70 1015.58 1015.62 1015.26 1015.18 1014.82 1014.74 1014.54 1014.26 1014.06 1013.74 1013.70 1013.74 1013.78 1013.82 1013.82 1013.74 1013.82 1013.94 1013.98 1014.26 1014.18 1014.26 1014.46 1014.82 1015.06 1015.42 1015.86 1016.02 1016.10 1016.26 1016.42 1016.66 1016.82 1017.02 1017.22 1017.50 1017.78 1017.82 1018.10 1018.22 1018.38 1018.54 1018.70 1019.38 1019.86 1019.66 1019.70 1020.18 1019.70 1019.46 1019.02 1018.82 1018.74 1019.10 1018.74 1018.42 1018.54 1018.54 1018.58 1018.78
1015.86 1015.34 1015.38 1015.86 1015.94 1015.54 1015.30 1015.26 1014.78 1014.62 1014.42 1014.18 1013.82 1013.54 1013.50 1013.54 1013.62 1013.58 1013.54 1013.62 1013.62 1013.62 1013.82 1013.66 1013.74 1014.06 1014.38 1014.62 1014.98 1015.26 1015.46 1015.86 1015.98 1016.18 1016.34 1016.54 1016.78 1016.58 1016.94 1017.42 1018.02 1018.22 1018.86 1018.74 1018.58 1018.74 1019.02 1019.30 1019.70 1019.66 1019.30 1019.70 1019.70 1019.22 1018.78 1018.94 1019.18 1018.74 1018.34 1018.38 1018.58 1018.38 1018.46
1015.62 1015.50 1015.50 1015.46 1015.50 1015.54 1015.26 1014.82 1014.82 1014.66 1014.34 1014.06 1013.78 1013.62 1013.50 1013.42 1013.38 1013.38 1013.42 1013.38 1013.34 1013.42 1013.54 1013.54 1013.66 1013.86 1014.02 1014.30 1014.42 1014.74 1015.06 1015.42 1015.74 1015.90 1016.02 1016.06 1016.22 1016.62 1016.98 1017.30 1017.66 1017.70 1018.10 1018.42 1018.30 1018.30 1018.62 1018.98 1019.30 1019.46 1019.14 1018.82 1018.90 1019.30 1018.90 1018.62 1018.78 1018.78 1018.62 1018.50 1018.42 1018.34 1018.54
1015.66 1015.62 1015.62 1015.66 1015.34 1015.50 1015.34 1015.34 1014.98 1014.58 1014.42 1014.02 1013.66 1013.66 1013.50 1013.34 1013.30 1013.30 1013.30 1013.30 1013.30 1013.34 1013.38 1013.38 1013.50 1013.62 1013.78 1014.06 1014.42 1014.70 1014.98 1015.18 1015.38 1015.58 1015.74 1016.02 1016.14 1016.46 1016.98 1017.10 1016.82 1017.10 1017.50 1017.74 1017.74 1017.78 1018.26 1018.54 1018.82 1018.98 1018.62 1018.98 1018.58 1018.62 1018.38 1018.46 1018.42 1018.70 1018.82 1018.82 1018.26 1018.22 1018.34
1015.82 1015.54 1015.34 1015.26 1015.22 1015.42 1015.10 1014.94 1014.66 1014.50 1014.14 1014.18 1013.94 1013.74 1013.58 1013.54 1013.42 1013.34 1013.22 1013.26 1013.18 1013.18 1013.18 1013.26 1013.50 1013.46 1013.70 1013.82 1014.14 1014.38 1014.50 1014.86 1015.06 1015.22 1015.42 1015.66 1015.94 1016.22 1016.62 1016.42 1016.58 1016.90 1017.14 1017.10 1017.38 1017.50 1017.78 1018.18 1018.58 1018.90 1018.46 1018.50 1018.66 1018.98 1018.50 1018.62 1018.78 1018.58 1018.82 1019.06 1018.46 1017.90 1018.02
1016.14 1015.82 1015.50 1015.34 1015.10 1014.94 1014.82 1014.74 1014.58 1014.46 1014.18 1014.26 1014.34 1014.22 1013.66 1014.10 1013.46 1013.10 1013.06 1013.02 1012.94 1012.94 1013.02 1013.10 1013.34 1013.30 1013.66 1013.82 1013.90 1014.10 1014.22 1014.38 1014.58 1014.86 1015.18 1015.50 1015.98 1016.10 1015.78 1016.02 1016.26 1016.70 1016.78 1017.06 1017.18 1017.14 1017.62 1018.10 1018.38 1018.46 1018.62 1019.06 1018.74 1018.98 1018.46 1018.62 1018.46 1019.02 1019.10 1018.90 1018.62 1017.94 1018.34
1016.30 1015.98 1015.70 1015.38 1015.14 1015.06 1014.82 1014.62 1014.34 1014.06 1014.06 1013.82 1013.94 1013.58 1013.74 1013.30 1013.10 1013.10 1013.10 1013.10 1013.06 1013.14 1013.10 1013.22 1013.22 1013.34 1013.38 1013.46 1013.46 1013.66 1013.86 1014.02 1014.26 1014.62 1014.86 1015.38 1015.46 1015.58 1015.74 1015.94 1015.98 1016.14 1016.38 1016.70 1016.66 1016.86 1016.90 1017.62 1017.58 1017.42 1017.86 1018.90 1019.10 1019.06 1019.30 1018.74 1018.42 1018.62 1018.62 1018.70 1018.10 1017.42 1017.70
1016.70 1016.34 1015.82 1015.42 1015.18 1014.98 1014.74 1014.58 1014.34 1014.10 1013.86 1013.74 1013.54 1013.38 1013.50 1013.46 1013.42 1013.34 1013.26 1013.18 1013.18 1013.26 1013.70 1013.34 1013.18 1013.42 1013.26 1013.42 1013.38 1013.38 1013.66 1013.38 1013.74 1014.10 1014.30 1014.62 1014.94 1015.18 1015.38 1015.70 1015.78 1015.86 1016.02 1016.10 1016.18 1016.22 1016.18 1016.34 1016.62 1016.90 1017.22 1018.02 1018.66 1019.22 1018.58 1018.98 1018.94 1018.62 1017.86 1018.62 1018.30 1017.74 1017.78
1016.86 1016.66 1016.38 1015.90 1015.34 1014.90 1014.58 1014.34 1014.26 1013.98 1013.82 1013.62 1013.46 1013.38 1013.58 1013.62 1013.50 1013.46 1013.66 1013.86 1013.58 1013.38 1013.26 1013.06 1013.02 1012.98 1013.06 1013.34 1013.22 1013.14 1013.22 1013.14 1013.46 1013.82 1014.10 1014.30 1014.46 1014.86 1015.58 1015.34 1015.46 1015.66 1015.82 1015.78 1015.74 1015.62 1015.86 1016.14 1016.30 1016.50 1016.70 1017.30 1017.82 1018.66 1018.82 1018.86 1019.22 1018.94 1018.06 1018.06 1018.50 1018.14 1017.22
1016.90 1016.66 1016.42 1016.18 1015.66 1015.10 1014.70 1014.22 1013.86 1013.78 1013.66 1013.46 1013.34 1013.38 1013.54 1013.86 1013.54 1013.30 1013.58 1013.62 1013.50 1013.18 1013.02 1012.86 1012.94 1012.82 1012.94 1012.74 1012.78 1012.66 1012.66 1012.82 1013.26 1013.58 1013.86 1014.10 1014.26 1014.30 1014.62 1015.06 1015.30 1015.54 1015.10 1015.18 1015.34 1015.42 1015.66 1015.94 1016.22 1016.42 1016.54 1016.58 1017.10 1018.02 1018.06 1018.62 1018.70 1018.18 1018.30 1017.50 1018.14 1017.42 1016.58
1016.94 1016.74 1016.50 1016.30 1016.02 1015.54 1014.90 1014.38 1013.90 1013.58 1013.50 1013.38 1013.26 1013.34 1013.58 1013.74 1013.82 1013.46 1013.22 1013.18 1013.42 1013.18 1012.90 1012.82 1012.66 1012.54 1012.54 1012.94 1012.86 1012.54 1012.50 1012.66 1013.02 1013.34 1013.46 1013.74 1013.94 1014.18 1014.50 1014.86 1015.06 1015.10 1014.86 1015.02 1015.22 1015.50 1015.62 1015.70 1015.86 1016.10 1016.38 1016.42 1016.54 1017.10 1017.58 1018.02 1018.58 1017.86 1017.74 1018.10 1017.34 1016.02 1016.62
1017.18 1016.94 1016.74 1016.46 1016.06 1015.58 1014.90 1014.34 1013.90 1013.54 1013.38 1013.26 1013.10 1013.02 1013.22 1013.38 1013.54 1013.50 1013.34 1013.06 1013.26 1013.38 1013.34 1013.06 1012.94 1012.82 1012.78 1012.86 1012.94 1012.54 1012.46 1012.42 1012.74 1012.98 1013.14 1013.30 1013.50 1013.74 1014.14 1014.46 1014.58 1014.50 1014.62 1014.78 1015.06 1015.34 1015.42 1015.30 1015.30 1015.58 1015.78 1015.78 1016.42 1017.18 1017.42 1017.70 1018.02 1018.50 1018.14 1017.74 1016.82 1016.50 1016.26
1017.30 1017.06 1016.94 1016.66 1016.22 1015.62 1015.14 1014.62 1014.10 1013.70 1013.26 1013.14 1013.10 1013.18 1013.18 1013.26 1013.30 1013.42 1013.46 1013.18 1013.06 1013.10 1013.18 1013.02 1013.06 1012.86 1012.82 1013.02 1013.18 1012.18 1012.10 1012.22 1012.50 1012.70 1012.90 1013.10 1013.10 1013.42 1013.70 1013.74 1013.78 1014.02 1014.18 1014.70 1014.78 1015.02 1015.18 1014.98 1015.10 1015.22 1014.66 1014.94 1016.14 1016.94 1017.26 1017.42 1017.74 1018.10 1017.86 1017.10 1017.18 1016.98 1016.26
1017.42 1017.22 1017.14 1016.82 1016.50 1016.10 1015.66 1015.10 1014.42 1013.82 1013.54 1013.18 1013.06 1013.18 1013.30 1013.26 1013.38 1013.66 1013.54 1013.46 1013.18 1012.82 1012.66 1012.78 1012.70 1012.74 1012.66 1012.86 1013.14 1012.78 1012.50 1012.06 1012.18 1012.34 1012.62 1012.78 1012.94 1013.02 1013.18 1013.26 1013.42 1013.86 1014.06 1014.34 1014.66 1014.82 1014.58 1014.66 1014.62 1014.78 1014.90 1014.90 1015.46 1016.26 1016.30 1016.62 1017.02 1017.54 1017.78 1017.90 1018.10 1016.42 1016.34
1017.50 1017.38 1017.22 1016.98 1016.74 1016.42 1015.90 1015.42 1014.74 1014.14 1013.62 1013.30 1013.26 1013.26 1013.22 1013.14 1013.14 1013.10 1013.22 1013.26 1013.30 1013.14 1013.10 1012.78 1012.86 1012.82 1012.70 1012.70 1012.94 1011.86 1011.66 1011.74 1011.90 1012.18 1012.34 1012.50 1012.46 1012.50 1012.78 1013.10 1013.50 1013.90 1013.90 1014.14 1014.42 1014.50 1014.18 1014.34 1014.30 1014.50 1014.70 1014.74 1015.14 1015.42 1015.82 1016.22 1016.74 1017.30 1017.54 1017.42 1016.90 1017.14 1016.66
1017.66 1017.46 1017.34 1017.18 1016.98 1016.62 1016.18 1015.66 1015.06 1014.50 1013.78 1013.34 1013.22 1013.10 1013.14 1013.06 1013.06 1012.98 1013.10 1012.98 1012.82 1012.86 1012.78 1012.50 1012.50 1012.58 1012.50 1012.46 1012.10 1012.02 1011.62 1011.70 1011.90 1011.86 1012.06 1012.26 1012.38 1012.42 1012.74 1013.14 1013.70 1013.74 1013.70 1014.02 1014.14 1014.10 1013.98 1014.02 1014.18 1014.34 1014.58 1014.82 1014.86 1015.14 1015.78 1016.26 1016.58 1016.90 1017.10 1017.30 1017.06 1017.54 1016.86
1017.82 1017.58 1017.46 1017.30 1017.22 1016.98 1016.58 1016.06 1015.50 1014.98 1014.14 1013.54 1013.26 1013.10 1013.10 1013.06 1013.02 1012.90 1012.70 1012.70 1012.78 1012.90 1012.74 1012.54 1012.66 1012.62 1012.34 1012.26 1012.34 1012.18 1011.70 1011.42 1011.38 1011.58 1011.70 1011.98 1012.26 1012.30 1012.46 1012.98 1013.10 1013.54 1013.54 1013.74 1013.82 1013.90 1013.74 1013.98 1013.94 1014.22 1014.18 1014.34 1014.58 1015.18 1015.82 1016.30 1016.50 1016.82 1017.06 1017.30 1017.30 1016.78 1016.70
1017.90 1017.74 1017.58 1017.42 1017.30 1017.10 1016.86 1016.38 1015.90 1015.34 1014.70 1013.98 1013.62 1013.46 1013.34 1013.02 1012.86 1012.66 1012.54 1012.42 1012.34 1012.46 1012.38 1012.30 1012.50 1012.66 1012.54 1012.50 1012.54 1012.18 1011.34 1011.46 1011.14 1011.26 1011.46 1011.58 1011.70 1011.98 1012.22 1012.38 1013.06 1013.10 1013.66 1013.54 1013.62 1013.54 1013.58 1013.54 1013.66 1013.90 1014.10 1014.18 1014.62 1015.18 1016.10 1016.50 1016.78 1017.10 1017.18 1017.14 1017.14 1017.22 1017.38
1017.94 1017.78 1017.70 1017.58 1017.34 1017.18 1017.06 1016.82 1016.34 1015.82 1015.26 1014.82 1014.22 1013.86 1013.62 1013.22 1012.70 1012.50 1012.30 1012.10 1012.10 1012.14 1012.14 1012.22 1012.42 1012.58 1012.78 1012.58 1012.46 1012.22 1011.78 1011.42 1011.30 1011.18 1011.18 1011.26 1011.38 1011.62 1011.94 1012.14 1012.46 1012.82 1013.26 1013.58 1013.38 1013.26 1013.26 1013.42 1013.42 1013.58 1013.86 1014.46 1014.62 1015.06 1016.02 1017.14 1017.46 1017.50 1017.42 1017.22 1016.54 1015.98 1016.22
1018.10 1017.90 1017.86 1017.70 1017.54 1017.38 1017.18 1017.10 1016.90 1016.38 1015.90 1015.46 1015.10 1014.86 1014.46 1013.74 1012.94 1012.54 1012.46 1012.30 1012.26 1012.22 1012.42 1012.54 1012.66 1012.82 1012.66 1012.66 1012.70 1012.46 1012.02 1011.90 1011.10 1010.90 1011.02 1011.10 1011.18 1011.30 1011.66 1011.94 1011.98 1012.02 1012.22 1012.50 1013.18 1013.02 1013.14 1013.34 1013.46 1013.78 1014.18 1014.70 1014.90 1014.90 1015.58 1016.22 1016.70 1016.74 1016.58 1016.34 1016.18 1016.02 1015.54
1018.06 1018.02 1017.98 1017.90 1017.66 1017.54 1017.46 1017.42 1017.26 1016.94 1016.58 1016.26 1015.86 1015.50 1015.10 1014.70 1013.94 1013.10 1012.70 1012.66 1012.50 1012.54 1012.70 1012.86 1012.94 1013.18 1013.02 1012.78 1012.70 1012.42 1012.06 1011.10 1010.82 1010.90 1010.98 1010.98 1011.26 1011.50 1011.62 1011.70 1011.46 1011.38 1011.78 1012.18 1012.34 1012.70 1012.90 1013.18 1013.50 1014.06 1014.74 1014.62 1014.70 1015.10 1015.10 1015.38 1015.86 1016.10 1015.90 1015.78 1016.02 1015.54 1015.30
1018.42 1018.34 1018.22 1018.02 1017.94 1017.78 1017.66 1017.58 1017.50 1017.42 1017.14 1016.86 1016.50 1016.14 1015.74 1015.42 1015.06 1014.46 1013.82 1013.10 1012.82 1012.74 1013.38 1013.82 1014.10 1013.82 1013.54 1013.38 1012.98 1012.70 1012.30 1011.54 1011.22 1010.70 1010.74 1010.82 1010.94 1011.02 1011.02 1010.90 1011.02 1011.30 1012.02 1012.22 1012.46 1012.78 1013.10 1013.42 1013.62 1013.46 1013.82 1014.30 1014.50 1014.90 1015.10 1015.18 1015.42 1015.46 1015.58 1015.78 1015.86 1015.70 1015.42
1018.86 1018.66 1018.50 1018.38 1018.26 1018.18 1017.94 1017.78 1017.86 1017.86 1017.62 1017.38 1017.06 1016.74 1016.50 1016.14 1015.90 1015.58 1014.90 1014.14 1013.62 1014.14 1014.78 1015.22 1014.86 1014.62 1014.34 1014.22 1013.74 1012.74 1012.34 1012.06 1011.58 1011.14 1010.70 1010.70 1010.82 1010.78 1010.70 1010.66 1010.82 1011.34 1011.78 1012.22 1012.54 1012.90 1013.22 1013.58 1013.70 1013.66 1013.66 1013.86 1013.98 1014.18 1014.66 1015.06 1015.22 1015.30 1015.34 1015.38 1015.50 1015.62 1015.30
1019.42 1019.18 1018.90 1018.66 1018.58 1018.42 1018.30 1018.22 1018.10 1018.06 1017.98 1017.78 1017.50 1017.26 1017.14 1016.90 1016.62 1016.38 1015.94 1015.46 1014.90 1015.18 1015.62 1015.82 1015.50 1015.22 1014.98 1014.78 1014.74 1013.94 1013.02 1012.46 1012.06 1011.10 1010.94 1010.82 1010.62 1010.58 1010.62 1010.66 1010.82 1011.02 1011.38 1011.62 1012.06 1012.70 1013.26 1013.62 1013.82 1013.90 1013.98 1013.98 1014.02 1013.98 1014.06 1014.26 1014.74 1015.18 1015.22 1015.18 1015.30 1015.26 1015.26
1020.10 1019.86 1019.54 1019.22 1018.94 1018.82 1018.70 1018.58 1018.42 1018.22 1018.18 1018.26 1018.14 1017.86 1017.62 1017.38 1017.22 1016.98 1016.82 1016.42 1015.94 1015.58 1016.26 1016.50 1016.22 1015.90 1015.58 1015.02 1014.62 1014.38 1013.30 1012.54 1011.98 1011.86 1011.34 1011.10 1010.74 1010.42 1010.46 1010.62 1010.78 1011.02 1011.10 1011.62 1011.82 1011.94 1012.58 1013.50 1013.94 1014.02 1014.06 1014.14 1014.10 1014.06 1014.10 1014.22 1014.42 1014.62 1014.62 1014.86 1014.90 1015.14 1015.02
1020.54 1020.34 1020.10 1019.82 1019.50 1019.26 1019.14 1019.02 1018.86 1018.62 1018.38 1018.30 1018.50 1018.50 1018.14 1017.98 1017.74 1017.58 1017.42 1017.22 1016.90 1016.30 1016.42 1016.70 1016.58 1016.26 1015.98 1015.62 1014.98 1014.42 1013.54 1012.66 1012.06 1011.70 1011.66 1011.50 1011.02 1010.66 1010.42 1010.46 1010.74 1011.06 1011.10 1011.42 1011.58 1011.74 1012.02 1012.70 1013.38 1013.74 1013.86 1013.82 1013.90 1014.26 1014.30 1014.46 1014.50 1014.74 1014.78 1014.74 1014.94 1015.10 1015.22
1020.90 1020.74 1020.50 1020.26 1019.94 1019.70 1019.54 1019.34 1019.14 1018.94 1018.58 1018.46 1018.50 1018.58 1018.70 1018.54 1018.38 1018.22 1017.98 1017.82 1017.54 1017.18 1017.22 1017.46 1017.06 1016.70 1016.26 1015.78 1015.22 1014.42 1013.34 1012.70 1012.10 1011.58 1011.38 1011.46 1011.54 1011.14 1010.62 1010.54 1010.62 1010.94 1011.06 1011.14 1011.26 1011.50 1011.94 1012.42 1012.82 1013.22 1013.38 1013.38 1013.58 1013.90 1014.14 1014.30 1014.30 1014.38 1014.50 1014.62 1014.90 1015.10 1015.22
1021.14 1020.94 1020.86 1020.74 1020.46 1020.22 1019.98 1019.66 1019.46 1019.22 1018.90 1018.66 1018.54 1018.54 1018.54 1018.70 1018.90 1018.74 1018.50 1018.34 1018.14 1017.94 1017.66 1017.70 1017.58 1017.14 1016.58 1015.94 1015.30 1014.06 1012.94 1012.50 1011.98 1011.50 1011.22 1011.26 1011.46 1011.54 1011.30 1011.06 1010.86 1010.90 1011.42 1011.42 1011.62 1011.42 1011.90 1012.14 1012.38 1012.70 1012.90 1013.06 1013.58 1014.06 1014.86 1015.50 1015.66 1015.38 1014.82 1014.50 1014.82 1015.22 1015.50
1021.14 1021.06 1021.10 1021.02 1020.90 1020.70 1020.34 1019.98 1019.74 1019.50 1019.22 1018.98 1018.74 1018.66 1018.58 1018.50 1018.74 1019.02 1018.98 1018.78 1018.74 1018.54 1018.14 1017.98 1017.94 1017.54 1017.02 1016.38 1015.66 1014.46 1013.42 1012.54 1011.94 1011.50 1011.38 1011.34 1011.54 1011.98 1011.98 1011.54 1011.42 1011.38 1011.70 1011.54 1011.70 1011.62 1012.06 1012.10 1012.02 1012.30 1012.54 1012.98 1013.50 1013.90 1014.78 1015.46 1015.66 1015.54 1015.38 1015.38 1015.54 1015.86 1016.10
1021.54 1021.14 1020.94 1021.22 1021.18 1020.98 1020.74 1020.50 1020.26 1019.94 1019.66 1019.38 1019.18 1018.94 1018.74 1018.58 1018.66 1018.90 1019.22 1019.26 1019.26 1019.06 1018.82 1018.42 1018.30 1017.86 1017.34 1016.78 1016.26 1015.22 1013.90 1013.06 1012.30 1011.82 1011.26 1011.02 1011.30 1011.90 1012.78 1012.58 1012.18 1011.82 1011.58 1011.46 1011.62 1011.58 1012.02 1012.14 1012.22 1012.06 1012.26 1012.82 1013.58 1014.06 1014.78 1015.22 1015.50 1015.98 1015.98 1015.94 1016.14 1016.30 1016.42
1021.90 1021.42 1021.06 1020.98 1020.90 1020.86 1020.82 1020.78 1020.54 1020.30 1020.06 1019.82 1019.70 1019.38 1019.18 1018.90 1018.86 1018.90 1019.06 1019.26 1019.30 1019.42 1019.22 1018.86 1018.70 1018.26 1017.66 1017.06 1016.46 1015.62 1014.62 1013.74 1013.10 1012.54 1011.90 1011.62 1011.38 1011.94 1012.18 1012.70 1012.94 1012.74 1011.98 1011.62 1011.86 1011.78 1012.02 1012.18 1012.02 1012.26 1012.34 1012.90 1013.42 1013.94 1014.38 1014.78 1015.10 1015.42 1015.66 1015.98 1016.26 1016.34 1016.58
1022.30 1021.94 1021.54 1021.30 1020.94 1020.74 1020.58 1020.54 1020.50 1020.30 1020.22 1020.14 1020.06 1019.94 1019.82 1019.46 1019.30 1019.10 1019.06 1019.10 1019.18 1019.38 1019.46 1019.18 1018.98 1018.66 1018.10 1017.46 1016.78 1015.90 1014.86 1014.46 1014.02 1013.70 1012.98 1012.38 1011.86 1012.22 1012.58 1012.86 1013.46 1013.74 1013.46 1013.14 1012.78 1012.62 1012.46 1012.54 1012.42 1012.14 1012.34 1012.82 1013.30 1013.86 1014.14 1014.42 1014.74 1014.90 1015.22 1015.46 1015.82 1016.10 1016.42
1022.54 1022.30 1021.90 1021.58 1021.42 1021.10 1020.78 1020.58 1020.50 1020.26 1020.10 1020.14 1020.18 1020.22 1020.22 1020.06 1019.82 1019.58 1019.26 1019.18 1019.22 1019.30 1019.54 1019.42 1019.18 1019.02 1018.54 1017.98 1017.42 1016.82 1015.90 1015.62 1015.14 1014.54 1014.34 1013.90 1013.70 1013.74 1013.70 1014.02 1014.30 1014.82 1014.30 1013.94 1013.54 1013.18 1012.94 1012.86 1012.86 1012.38 1012.22 1012.42 1012.98 1013.46 1013.82 1014.22 1014.74 1014.90 1015.14 1015.58 1015.86 1016.06 1016.34
1022.78 1022.54 1022.34 1021.94 1021.66 1021.54 1021.34 1021.06 1020.86 1020.66 1020.34 1020.18 1020.18 1020.30 1020.46 1020.34 1020.26 1020.14 1019.82 1019.66 1019.54 1019.54 1019.58 1019.78 1019.70 1019.34 1019.10 1018.62 1018.10 1017.74 1017.26 1016.90 1016.38 1015.54 1015.30 1015.30 1015.18 1015.02 1015.18 1015.18 1015.38 1015.46 1015.06 1014.78 1014.34 1013.98 1013.74 1013.34 1012.86 1012.46 1012.74 1012.90 1013.50 1013.78 1013.98 1014.38 1014.70 1014.98 1015.18 1015.30 1015.54 1015.82 1016.06
1022.94 1022.66 1022.42 1022.30 1022.06 1021.86 1021.86 1021.58 1021.26 1021.10 1020.90 1020.58 1020.38 1020.42 1020.50 1020.62 1020.58 1020.54 1020.42 1020.30 1020.22 1020.14 1020.06 1019.90 1020.10 1019.78 1019.42 1019.14 1018.78 1018.42 1018.10 1017.78 1017.22 1016.74 1016.66 1016.66 1016.70 1016.78 1016.42 1016.14 1016.02 1015.58 1015.34 1015.30 1015.22 1015.14 1014.70 1014.42 1014.14 1014.34 1013.74 1013.58 1014.06 1014.26 1014.26 1014.26 1014.46 1014.62 1014.74 1014.98 1015.34 1015.74 1016.14
1023.14 1023.02 1022.82 1022.58 1022.42 1022.34 1022.30 1022.22 1021.94 1021.62 1021.42 1021.18 1020.94 1020.66 1020.58 1020.82 1020.90 1020.94 1020.86 1020.78 1020.74 1020.74 1020.66 1020.50 1020.34 1020.22 1019.90 1019.58 1019.26 1018.94 1018.66 1018.46 1018.22 1018.06 1017.86 1017.82 1017.74 1017.78 1017.50 1016.86 1016.46 1016.14 1015.98 1015.78 1015.46 1015.70 1015.74 1015.50 1015.38 1015.06 1014.66 1014.50 1014.58 1014.46 1013.98 1014.18 1014.14 1014.38 1014.82 1015.10 1015.42 1015.74 1016.10
Wind_Speed
5 8 7 8 7 6 7 8 7 8 8 9 9 10 10 10 10 10 10 9 10 10 8 10 10 9 9 10 9 9 6 6 8 8 8 7 9 9 8 8 7 4 4 2 2 3 1 3 7 5 2 7 5 6 7 7 4 6 5 5 7 7 5
8 9 6 6 7 8 8 7 8 8 8 9 10 10 10 11 10 10 10 10 10 10 8 10 9 10 10 9 9 10 10 9 8 8 7 7 7 9 7 6 5 5 4 4 3 4 2 5 6 7 8 4 6 8 7 6 3 6 6 6 6 7 7
6 6 5 4 7 7 9 9 8 7 8 8 9 10 9 10 10 10 10 10 10 10 9 10 10 9 10 10 10 11 11 12 11 9 9 7 10 5 4 5 6 5 4 5 4 4 5 6 7 5 7 10 10 8 7 6 5 5 7 7 7 8 8
8 7 7 7 5 6 8 8 7 7 7 8 8 8 9 10 10 11 10 10 10 9 10 10 9 9 9 11 11 12 13 12 10 10 9 9 5 4 6 5 9 8 7 7 6 7 7 6 6 8 9 11 11 8 9 8 8 6 5 7 9 8 8
10 7 7 8 7 6 8 9 9 7 7 8 8 9 9 9 9 9 10 10 9 9 10 9 9 9 8 9 9 9 8 11 10 9 9 9 9 6 7 9 6 6 6 5 5 6 6 6 7 7 5 5 8 4 6 8 8 6 6 7 10 8 9
10 10 10 9 6 6 8 9 8 8 8 7 8 9 9 9 9 9 9 9 9 9 10 10 9 9 9 9 10 11 12 13 11 10 8 9 8 7 9 8 6 5 5 6 7 4 4 3 6 5 4 2 5 6 9 8 8 7 5 5 10 10 10
9 9 9 8 9 9 8 9 9 9 8 6 8 12 7 10 11 10 10 10 11 9 10 10 9 10 9 9 11 11 12 11 10 10 8 7 7 9 5 6 8 7 6 6 8 5 5 5 6 7 4 3 3 4 2 7 8 5 6 8 12 8 8
9 9 9 8 8 8 9 10 10 9 9 8 9 9 9 11 9 10 11 10 10 10 9 10 9 10 10 10 9 12 11 10 11 10 10 11 10 7 7 5 5 6 5 8 6 8 9 9 9 7 5 5 4 7 8 7 8 11 7 10 12 7 10
9 9 9 8 9 9 9 9 10 10 9 9 9 10 8 10 10 10 10 10 7 5 9 12 9 8 11 10 10 9 11 9 11 13 10 10 9 10 8 6 8 7 7 7 8 10 9 7 6 5 5 5 6 8 8 9 6 9 11 5 4 6 9
9 10 10 12 12 11 11 10 9 11 11 10 9 8 6 9 11 10 9 8 8 9 12 10 10 10 9 11 11 11 11 10 10 11 9 7 8 11 9 12 8 6 7 8 10 9 8 7 6 6 6 6 6 6 7 7 6 7 9 9 7 13 15
9 9 10 11 12 11 11 11 10 10 10 10 9 8 6 6 12 12 10 8 8 9 10 11 12 11 12 11 11 11 10 11 10 9 8 8 8 7 8 7 6 7 9 8 8 8 7 6 6 6 7 7 8 9 7 7 7 6 4 6 7 9 10
10 10 10 10 11 12 12 12 12 11 10 10 10 9 8 6 7 12 11 11 9 11 10 10 12 9 8 7 9 8 9 10 10 10 9 10 9 9 8 8 7 9 8 8 8 6 5 5 7 8 7 9 8 8 6 5 4 5 4 7 11 9 10
10 10 11 11 11 11 12 12 13 13 11 11 11 11 9 9 9 11 12 10 8 12 8 11 8 9 8 7 9 9 10 12 11 10 8 9 7 9 9 10 11 9 8 8 7 6 7 8 9 9 11 10 5 4 5 4 5 4 7 7 4 6 12
12 11 12 12 12 12 12 13 12 13 13 12 10 10 7 9 12 11 11 11 10 10 11 11 8 6 4 5 11 10 11 11 11 9 9 9 11 8 10 11 11 11 10 9 7 6 8 10 10 10 9 8 9 10 7 7 7 5 3 2 3 8 11
11 12 13 12 12 12 13 13 14 14 14 13 12 10 9 8 10 13 12 8 11 11 9 11 9 7 7 8 13 9 11 10 11 11 10 11 11 9 9 10 10 9 10 10 7 10 11 10 10 10 9 8 6 7 11 8 7 5 8 3 8 7 10
12 13 14 12 13 14 13 13 14 14 13 13 11 10 10 9 9 9 7 9 12 7 7 10 8 8 8 8 13 13 9 8 10 10 11 11 11 10 9 9 9 8 8 9 8 10 10 12 11 11 12 9 8 9 9 8 5 6 7 7 5 5 9
14 14 14 13 14 15 14 14 14 15 15 14 13 10 9 8 7 8 7 8 6 5 8 8 9 9 10 13 12 11 11 10 11 11 11 11 11 10 11 8 8 10 9 9 11 10 10 10 9 8 8 9 10 9 9 7 6 4 5 6 7 7 9
13 14 14 13 15 15 15 14 14 16 16 14 15 12 9 7 8 10 8 8 7 8 9 9 8 9 8 7 9 10 10 12 10 10 10 10 9 9 8 10 9 7 9 11 9 10 11 11 9 9 9 8 8 6 5 6 7 4 5 5 6 4 2
14 15 15 14 15 14 13 14 15 14 16 17 14 12 13 9 8 8 9 7 5 5 6 7 8 10 9 8 9 14 9 9 10 10 10 10 11 6 7 8 9 10 8 10 8 9 9 12 11 11 12 10 7 7 8 6 6 7 7 8 9 9 10
14 14 14 13 13 13 13 14 15 15 14 15 16 14 11 13 9 6 6 6 6 5 5 4 5 7 12 12 8 10 9 7 8 9 9 10 10 10 10 9 11 10 11 10 10 10 9 9 9 9 7 5 3 4 8 8 6 8 7 9 8 10 10
14 14 14 14 13 14 14 13 14 14 14 14 14 16 17 15 12 5 6 6 6 4 6 6 7 7 9 8 8 12 9 11 11 9 9 9 10 9 9 9 10 10 10 9 10 10 8 7 5 6 2 5 4 5 6 9 11 11 12 9 5 7 9
13 15 15 14 14 15 14 13 13 14 14 14 12 14 14 17 16 14 9 7 5 2 3 4 5 6 8 10 13 9 9 9 9 9 10 10 8 8 9 10 11 10 10 8 7 5 6 3 5 7 6 8 5 5 8 8 5 3 4 6 6 8 8
14 15 15 15 15 15 14 14 14 14 14 14 14 14 15 14 14 14 14 11 6 4 8 8 14 16 9 6 7 8 11 6 8 10 10 10 10 11 11 9 9 4 8 8 8 7 6 10 8 5 6 10 10 8 8 8 7 8 8 7 7 9 10
14 15 15 15 15 15 16 14 14 14 13 14 14 14 13 14 13 14 14 13 9 11 9 10 19 19 20 18 10 7 10 9 11 10 10 9 10 10 9 9 7 8 8 7 7 10 12 13 13 13 11 7 7 10 10 9 8 9 9 8 6 6 8
15 15 15 16 15 15 15 15 16 15 15 15 14 13 13 13 12 13 13 13 10 9 10 18 21 21 20 19 10 8 8 7 10 10 8 10 10 9 9 9 7 7 8 9 8 8 9 12 12 12 10 10 8 5 4 8 10 9 8 8 9 10 9
14 15 15 15 15 14 15 16 16 16 17 14 13 15 14 13 11 12 11 12 13 9 8 19 21 21 21 20 17 10 7 9 7 9 10 9 11 9 9 8 8 7 7 9 9 10 9 9 10 10 10 8 7 6 7 4 2 0 7 9 8 9 9
14 15 14 14 14 14 15 16 15 14 14 15 14 13 14 14 13 13 12 12 11 11 11 21 22 22 20 20 19 13 9 10 9 8 9 11 9 8 9 8 7 8 7 9 10 10 9 10 8 8 8 7 6 4 2 2 1 1 2 1 6 5 2
14 14 15 15 14 15 15 15 15 14 14 15 15 14 12 13 12 13 13 11 11 11 9 20 22 23 21 20 21 15 8 9 10 10 8 7 11 10 5 6 6 7 6 8 8 9 9 10 9 9 10 10 9 8 5 4 5 3 3 1 2 4 5
14 14 14 14 14 15 15 14 15 13 13 14 13 13 12 11 12 13 13 13 11 11 11 16 22 23 23 21 21 11 9 9 10 10 10 5 7 7 6 7 5 4 5 7 6 8 2 7 10 10 10 8 7 8 6 4 5 5 4 2 4 5 3
14 14 14 14 14 14 15 15 14 12 13 13 13 14 13 13 12 13 13 12 13 10 10 15 21 22 22 21 16 10 10 9 9 11 8 9 2 2 5 2 2 4 4 6 7 9 5 6 8 9 10 10 6 6 5 4 9 12 12 14 14 13 11
14 14 14 14 14 13 13 12 13 12 13 13 13 13 13 13 12 12 12 12 12 10 11 15 22 23 21 21 16 11 9 9 10 10 10 7 4 5 6 11 10 6 3 2 9 12 7 4 8 8 9 8 8 7 6 6 5 6 13 16 15 14 12
14 14 14 14 13 13 13 12 12 12 12 12 12 12 13 12 13 12 13 12 12 13 12 14 21 23 22 21 17 10 9 8 9 10 10 9 4 2 5 9 15 13 7 5 8 10 7 2 6 7 8 9 9 8 8 8 8 9 8 9 8 9 8
13 13 14 13 13 13 12 12 13 12 12 11 12 12 12 12 13 12 13 14 14 14 16 15 18 23 23 22 20 14 8 7 7 9 9 9 7 7 8 8 12 17 14 11 10 10 7 6 3 6 8 8 8 9 9 9 9 9 9 8 8 8 8
13 13 13 14 13 13 13 13 13 13 12 12 13 12 14 13 12 13 12 13 14 13 12 18 19 23 23 23 23 18 9 10 10 7 6 8 8 8 8 9 7 14 14 13 12 11 11 9 7 5 9 8 7 11 11 10 9 9 9 10 10 9 8
11 11 12 12 14 13 13 13 13 13 12 13 14 14 14 13 13 12 12 13 14 14 14 16 17 19 21 23 23 24 13 12 12 7 7 8 8 7 7 6 6 10 15 15 15 14 15 14 14 7 10 17 17 13 10 10 9 9 9 8 8 8 7
11 10 12 13 13 14 14 14 14 14 14 13 14 14 14 14 13 13 12 11 12 14 14 12 16 17 19 20 21 22 23 16 18 11 9 10 10 8 7 7 7 12 17 17 19 19 17 17 14 9 13 16 15 13 11 8 9 8 8 8 8 8 7
11 11 12 13 14 13 14 14 14 13 14 13 12 13 13 12 13 13 14 12 11 12 13 13 13 16 15 18 18 19 19 21 19 11 10 8 9 8 7 7 8 14 15 15 18 18 19 18 13 17 16 13 4 6 7 9 8 7 7 8 8 8 7
Wind_Direction
262 270 257 261 281 273 262 257 258 260 255 255 253 246 250 250 248 247 244 244 244 241 227 222 218 217 218 221 200 196 202 194 198 204 205 210 209 208 201 204 205 187 182 181 210 200 344 239 215 197 219 228 194 227 228 252 237 207 168 191 176 173 174
267 257 251 281 286 279 266 256 256 260 256 251 253 252 243 244 245 245 246 245 242 241 232 235 224 216 212 207 199 198 205 202 202 209 214 214 219 225 191 208 193 188 201 216 193 138 199 235 233 203 191 214 232 224 228 221 277 222 171 182 195 182 175
269 277 266 253 259 275 269 271 261 253 257 254 248 252 250 243 243 245 245 246 244 239 234 241 232 224 215 205 194 200 195 203 207 206 214 217 228 211 164 188 204 201 222 235 225 195 220 237 248 214 194 183 200 217 215 225 216 236 195 185 206 197 175
297 285 281 266 269 281 281 270 264 261 260 255 253 247 247 243 243 242 246 244 241 241 237 235 230 223 221 212 200 190 193 199 206 205 209 219 213 175 203 206 211 200 196 205 210 201 201 212 215 242 211 200 194 193 203 204 201 202 214 226 200 202 184
315 307 288 288 269 271 276 281 272 256 254 255 251 254 252 245 239 238 237 241 243 239 233 230 227 218 215 209 198 186 195 205 206 206 210 215 212 194 211 219 200 190 200 212 227 205 195 206 227 223 216 205 209 205 181 194 205 189 208 238 215 193 185
317 316 312 301 301 271 259 266 275 271 264 267 266 261 257 256 248 241 239 234 239 232 232 226 224 210 205 199 196 189 195 199 202 204 204 206 201 206 210 208 201 192 209 219 230 213 178 196 212 233 239 244 213 196 205 188 202 204 216 250 228 193 188
321 314 305 305 308 307 298 286 280 278 273 259 276 270 246 259 250 247 242 237 238 237 230 227 217 218 201 214 194 198 192 198 202 204 206 201 208 214 211 194 204 193 206 226 229 198 191 195 217 212 189 218 238 211 185 185 197 179 214 222 249 173 211
329 325 320 311 300 297 299 299 292 284 278 273 264 266 284 266 264 254 249 248 242 246 236 226 214 213 206 213 204 196 190 194 197 199 199 199 203 196 209 211 207 192 205 220 221 228 202 213 220 210 185 193 214 215 204 204 194 209 187 213 215 195 190
330 324 313 310 309 301 293 284 282 281 278 275 276 280 298 291 274 269 261 250 252 245 246 231 214 224 215 212 210 199 201 197 197 202 204 197 192 198 213 210 212 211 210 211 217 222 215 207 202 198 193 173 187 207 200 183 199 218 215 183 214 189 225
328 327 322 317 315 312 301 289 280 279 280 274 271 269 272 284 274 262 262 266 257 236 229 222 222 215 211 213 215 202 201 196 201 205 205 206 200 192 205 203 199 215 224 213 223 219 214 207 207 200 201 196 179 211 202 193 200 222 221 204 194 191 210
327 327 323 322 317 309 304 300 294 285 279 274 272 273 263 270 283 263 248 245 252 242 237 227 227 216 215 211 212 209 201 197 197 198 201 208 210 211 194 175 197 218 217 219 220 226 219 195 192 206 218 204 188 209 196 183 197 200 203 199 209 204 182
334 334 331 324 320 310 302 300 296 296 293 281 271 268 265 242 260 279 266 242 238 246 231 233 229 226 211 230 228 214 204 198 198 200 198 207 210 206 192 196 206 221 211 216 219 210 209 209 203 208 212 218 196 202 187 166 205 199 206 213 218 180 169
338 337 334 330 320 311 306 307 306 300 296 288 281 279 271 260 249 258 259 252 242 226 217 233 245 235 219 227 232 217 210 203 204 204 199 199 200 197 195 203 209 207 209 213 208 207 214 219 223 211 208 211 153 206 176 183 189 207 198 222 230 199 171
340 340 339 334 327 324 324 315 307 308 304 295 286 280 276 273 273 266 258 254 242 231 209 223 235 247 258 237 245 232 211 204 207 203 205 211 214 195 206 211 203 201 202 207 204 205 211 215 218 231 227 208 185 175 171 196 197 196 313 340 307 216 177
344 341 341 337 335 334 327 322 313 307 307 304 304 306 308 296 282 271 277 295 262 216 199 216 224 225 211 215 236 223 227 217 215 210 206 214 211 206 210 209 205 197 208 204 196 221 212 217 218 214 213 218 201 167 181 177 194 167 192 140 253 256 170
348 347 344 344 341 335 329 323 319 311 306 304 306 305 299 294 293 295 293 255 256 205 222 227 229 237 228 224 235 227 223 225 219 214 212 216 220 214 205 210 194 196 208 199 199 223 217 218 218 220 217 208 213 180 167 173 161 190 190 194 211 241 193
351 350 348 347 344 338 334 329 325 319 311 305 305 303 299 298 287 279 274 279 289 291 240 235 230 234 231 232 230 226 222 214 219 220 216 214 220 218 210 203 205 201 196 198 205 208 212 214 218 221 216 220 212 180 171 146 185 197 180 193 203 204 214
354 351 351 348 348 345 341 336 332 327 320 317 318 317 305 285 287 285 274 266 243 241 252 251 260 250 249 248 256 251 223 215 214 218 217 217 218 218 215 213 200 203 199 207 202 213 213 211 220 221 215 218 204 167 125 149 189 204 197 191 239 254 95
357 354 350 349 348 348 343 340 338 335 336 332 328 330 320 296 278 260 255 256 254 234 251 252 238 253 253 244 238 240 221 220 215 214 215 220 216 213 226 210 209 202 190 206 206 212 212 214 219 221 223 212 205 176 143 136 183 189 214 204 182 226 162
357 358 354 351 349 350 348 344 343 343 344 349 345 339 330 326 300 279 277 272 256 247 242 244 260 265 270 258 257 249 232 235 219 215 217 214 218 207 212 217 213 199 199 203 209 212 210 219 221 229 225 217 138 122 153 168 189 191 201 219 207 207 195
358 2 358 355 356 352 351 350 347 345 349 350 356 355 346 333 337 328 312 299 305 339 332 313 306 307 288 281 244 256 234 220 219 209 214 216 217 219 208 213 223 213 217 199 204 203 200 212 215 208 281 107 169 171 148 163 179 203 189 203 201 200 226
2 3 2 359 356 358 357 355 351 351 352 354 353 354 357 351 346 354 353 341 328 333 294 308 320 326 311 307 283 255 261 236 216 221 214 214 211 218 229 222 222 218 207 193 160 103 116 127 215 190 145 128 149 183 182 166 192 172 215 188 204 226 193
4 5 4 3 1 359 360 357 359 355 356 356 356 358 357 355 353 354 348 345 334 32 27 13 358 347 338 306 312 318 272 262 253 221 217 220 214 214 216 215 214 177 101 131 133 138 136 97 79 120 158 175 172 186 176 168 174 184 197 200 200 227 180
4 6 5 5 5 3 1 2 2 360 358 360 360 2 3 2 357 355 351 347 23 47 39 10 0 358 344 345 352 337 316 284 235 232 227 216 221 215 217 214 209 140 141 121 132 128 108 106 110 126 146 159 175 169 171 173 182 182 194 205 169 214 194
4 5 3 5 7 5 5 4 4 4 3 2 4 5 9 7 1 2 356 351 3 47 28 10 4 358 348 342 359 338 308 290 297 279 245 234 225 219 218 213 208 203 204 209 191 144 114 110 119 121 124 125 141 162 185 181 179 188 203 201 192 201 202
7 4 4 3 4 8 6 6 6 5 6 6 1 6 9 8 10 5 3 355 351 17 38 12 5 357 347 341 343 340 311 300 293 295 285 262 242 225 216 209 205 206 210 183 209 197 167 123 122 127 125 116 100 140 161 190 339 51 208 213 205 203 211
7 7 5 3 5 7 8 8 7 5 5 7 8 5 5 10 11 9 7 3 353 354 21 8 2 355 347 340 337 336 306 297 286 275 285 284 270 241 222 210 205 206 209 186 200 201 193 157 147 152 158 166 164 111 90 90 83 141 7 243 230 211 342
8 6 6 5 5 7 7 8 8 7 6 8 10 10 7 6 8 9 10 6 1 356 20 10 360 352 347 342 335 320 300 290 279 273 273 282 295 298 285 233 213 221 208 206 193 195 190 171 169 179 188 190 167 171 163 192 208 224 211 164 98 120 150
10 8 9 6 6 6 6 6 7 6 6 8 11 11 13 20 10 9 9 12 5 7 357 13 3 353 346 343 337 319 308 294 282 275 271 271 270 282 319 325 282 257 254 207 206 185 182 185 168 184 187 175 142 95 76 35 357 3 12 222 143 98 62
10 14 12 9 7 5 3 5 7 4 4 7 7 10 11 13 15 13 11 12 13 2 351 7 2 354 348 344 342 325 316 301 292 279 274 277 289 330 22 16 10 276 264 301 147 146 137 224 177 196 174 154 121 124 102 68 39 43 64 73 82 93 93
8 5 14 16 10 9 7 6 3 1 3 3 6 7 5 11 13 17 17 15 13 4 357 3 4 356 352 348 343 326 317 312 307 304 284 278 246 144 80 39 19 4 321 195 165 146 165 239 216 188 168 165 160 146 123 121 105 74 76 83 88 89 86
7 7 9 12 11 12 13 11 7 5 5 4 4 2 2 7 11 13 15 14 27 22 6 6 6 1 358 355 351 331 321 320 323 328 309 281 256 82 81 52 33 16 0 122 168 149 147 230 217 184 175 166 178 156 140 145 132 128 123 117 114 116 108
12 10 12 8 10 10 10 13 11 13 13 13 10 8 5 2 5 12 16 13 16 20 20 16 12 7 5 4 359 346 330 344 339 344 346 358 24 52 36 35 28 14 14 29 41 45 48 27 345 190 172 184 169 135 137 139 142 141 139 133 126 118 106
15 15 11 13 13 10 8 10 8 9 12 14 15 13 13 9 6 6 9 19 15 20 30 19 17 15 11 11 11 7 353 2 345 349 360 13 31 31 30 26 29 10 16 25 34 31 35 28 348 233 180 187 146 131 137 131 126 125 124 122 124 121 116
12 14 14 8 15 17 12 12 12 7 7 8 13 16 14 13 12 8 9 8 14 13 19 31 15 19 15 17 18 20 16 6 359 353 18 26 21 33 38 40 33 20 33 33 33 38 41 47 43 45 85 94 101 114 122 123 130 133 132 133 128 122 120
14 11 15 15 11 17 16 10 12 12 10 6 9 14 14 15 12 10 10 10 10 12 10 15 19 11 13 16 22 25 24 21 15 22 25 33 25 19 23 34 40 55 59 51 46 38 40 42 49 43 69 88 99 118 136 139 141 144 142 136 129 120 117
18 15 16 14 17 16 19 15 11 12 12 9 8 6 14 13 13 13 9 9 13 14 12 11 12 8 9 12 17 22 27 28 25 30 37 36 32 16 14 28 48 49 54 60 62 52 40 42 45 39 38 43 87 208 169 145 162 144 130 126 123 116 108